Regional Weather Roundup
Issued by NWS

Home | Current Version | Previous Version | Text Only | Print | Product List | Glossary On
Versions: 1 2 3 4 5 6 7 8 9 10 11 12 13 14 15 16 17 18 19 20 21 22 23 24 25 26 27 28 29 30 31 32 33 34 35 36 37 38 39 40 41 42 43 44 45 46 47 48 49 50
741
ASUS44 KFWD 040610
RWRTX
NORTH TEXAS HOURLY WEATHER ROUNDUP
NATIONAL WEATHER SERVICE FORT WORTH TX
1200 AM CST SUN DEC 04 2016

NOTE: "FAIR" INDICATES FEW OR NO CLOUDS BELOW 12,000 FEET WITH NO
SIGNIFICANT WEATHER AND/OR OBSTRUCTIONS TO VISIBILITY.

TXZ118-119-040700-
DALLAS/FORT WORTH METROPLEX

CITY           SKY/WX    TMP DP  RH WIND       PRES   REMARKS
DFW AIRPORT    CLOUDY    48  45  89 NE8       29.95F
6HR MIN TEMP:  48; 6HR MAX TEMP:  49; 6HR PCP: TRACE;

DALLAS LOVE    CLOUDY    49  47  93 E7        29.95F
6HR MIN TEMP:  48; 6HR MAX TEMP:  49; 6HR PCP: TRACE;

FTW MEACHAM    CLOUDY    49  45  86 NE9       29.95S
6HR MIN TEMP:  48; 6HR MAX TEMP:  50;

DAL-EXECUTIVE  CLOUDY    48  47  96 NE8       29.94F FOG
6HR MIN TEMP:  48; 6HR MAX TEMP:  49; 6HR PCP: TRACE;

FTW-ALLIANCE   CLOUDY    47  45  93 N7        29.96R FOG
6HR MIN TEMP:  46; 6HR MAX TEMP:  48; 6HR PCP: TRACE;

FTW-NAS-JRB    CLOUDY    49  46  90 NE6       29.97R
6HR MIN TEMP:  49; 6HR MAX TEMP:  50;

FTW-SPINKS     CLOUDY    48  46  95 NE6       29.97R FOG
6HR MIN TEMP:  47; 6HR MAX TEMP:  49;

ARLINGTON      CLOUDY    48  46  93 NE7       29.96R
6HR MIN TEMP:  48; 6HR MAX TEMP:  49;

GRAND PRAIRIE  CLOUDY    47  47 100 NE6       29.97S
6HR MIN TEMP:  47; 6HR MAX TEMP:  49; 6HR PCP:  0.01;

ADDISON        CLOUDY    47  47 100 E6        29.96F
6HR MIN TEMP:  47; 6HR MAX TEMP:  49;

MESQUITE       CLOUDY    47  46  99 CALM      29.95F
6HR MIN TEMP:  47; 6HR MAX TEMP:  48; 6HR PCP:  0.01;

LANCASTER      CLOUDY    49  46  92 NE6       29.95F FOG
6HR MIN TEMP:  49; 6HR MAX TEMP:  49;

$$

TXZ091>094-102>105-117-120-121-131>134-040700-
NORTH CENTRAL TEXAS

CITY           SKY/WX    TMP DP  RH WIND       PRES   REMARKS
SHRMAN/DENISON CLOUDY    46  46 100 NE6       29.99S FOG
6HR MIN TEMP:  46; 6HR MAX TEMP:  46; 6HR PCP:  0.01;

GAINESVILLE    CLOUDY    45  43  95 NE5       30.00S
6HR MIN TEMP:  44; 6HR MAX TEMP:  45;

BOWIE          CLOUDY    46  45  97 NE3       29.98S
6HR MIN TEMP:  46; 6HR MAX TEMP:  46;

BRIDGEPORT     CLOUDY    46  46 100 NE5       29.99F
6HR MIN TEMP:  46; 6HR MAX TEMP:  47;

DECATUR        CLOUDY    45  45 100 NE6       29.97F FOG
6HR MIN TEMP:  45; 6HR MAX TEMP:  46;

DENTON         CLOUDY    46  45  96 NE9       29.96F
6HR MIN TEMP:  46; 6HR MAX TEMP:  47;

MCKINNEY       CLOUDY    46  46 100 NE8       29.95F FOG
6HR MIN TEMP:  46; 6HR MAX TEMP:  47; 6HR PCP: TRACE;

BONHAM         CLOUDY    45  45 100 E10       29.97F FOG     WCI  39
GREENVILLE     CLOUDY    46  45  93 NE5       29.95F FOG
ROCKWALL       CLOUDY    47  47 100 E9        29.94F FOG
6HR MIN TEMP:  47; 6HR MAX TEMP:  48;

TERRELL        LGT RAIN  48  46  93 NE8       29.96F
6HR MIN TEMP:  48; 6HR MAX TEMP:  49; 6HR PCP: TRACE;

WAXAHACHIE     CLOUDY    47  47 100 NE8       29.96R FOG
6HR MIN TEMP:  47; 6HR MAX TEMP:  47;

CLEBURNE       CLOUDY    46  46 100 N6        29.97R FOG
GRANBURY       CLOUDY    49  47  92 CALM      29.99R
6HR MIN TEMP:  49; 6HR MAX TEMP:  50;

$$

TXZ083>090-098>101-113>116-127>130-139>142-154-155-040700-
WESTERN NORTH TEXAS

CITY           SKY/WX    TMP DP  RH WIND       PRES   REMARKS
WICHITA FALLS  CLOUDY    45  43  93 N6        30.00S FOG
6HR MIN TEMP:  44; 6HR MAX TEMP:  45; 6HR PCP: TRACE;

WF-KICKAPOO    CLOUDY    45  44  98 N5        30.02S
6HR MIN TEMP:  45; 6HR MAX TEMP:  45;

VERNON         CLOUDY    46  42  87 NE5       30.02F
6HR MIN TEMP:  36; 6HR MAX TEMP:  64; 6HR PCP:  0.03;

ABILENE        CLOUDY    45  45 100 NW6       29.99S
6HR MIN TEMP:  45; 6HR MAX TEMP:  46; 6HR PCP:  0.03;

ABILENE-DYESS  CLOUDY    45  45 100 NW3       29.98R
                                      6HR PCP:  0.01;

CISCO          CLOUDY    46  46 100 N8        29.97F FOG
BRECKENRIDGE   CLOUDY    47  47  99 CALM      29.98S
6HR MIN TEMP:  47; 6HR MAX TEMP:  48;

GRAHAM         CLOUDY    46  46 100 CALM      29.98R
6HR MIN TEMP:  46; 6HR MAX TEMP:  46;

MINERAL WELLS  CLOUDY    47  45  93 N6        29.97R
6HR MIN TEMP:  47; 6HR MAX TEMP:  48;

STEPHENVILLE   CLOUDY    47  46  93 CALM      29.99R
6HR MIN TEMP:  47; 6HR MAX TEMP:  48;

COMANCHE       DRIZZLE   47  47 100 N5        29.97R
6HR MIN TEMP:  47; 6HR MAX TEMP:  47; 6HR PCP:  0.03;

BROWNWOOD      LGT RAIN  48  46  93 N5        29.99R
COLEMAN        CLOUDY    47  46  96 NW7       30.00R FOG
6HR MIN TEMP:  47; 6HR MAX TEMP:  48;

$$

TXZ143>147-156>162-174-175-040700-
CENTRAL TEXAS

CITY           SKY/WX    TMP DP  RH WIND       PRES   REMARKS
WACO           CLOUDY    48  48 100 NE9       29.94F
6HR MIN TEMP:  48; 6HR MAX TEMP:  50;

WACO-MCGREGOR  CLOUDY    49  48  97 NE12      29.94F
6HR MIN TEMP:  49; 6HR MAX TEMP:  50;

HILLSBORO      CLOUDY    48  47  97 NE5       29.96S
6HR MIN TEMP:  48; 6HR MAX TEMP:  49;

CORSICANA      CLOUDY    50  49  96 NE5       29.97R
6HR MIN TEMP:  50; 6HR MAX TEMP:  51; 6HR PCP: TRACE;

MEXIA          CLOUDY    49  47  95 NW5       29.94R
6HR MIN TEMP:  48; 6HR MAX TEMP:  49; 6HR PCP:  0.04;

HEARNE         CLOUDY    50  49  97 NW8       29.95S
6HR MIN TEMP:  49; 6HR MAX TEMP:  50; 6HR PCP:  0.01;

CAMERON        CLOUDY    51  49  95 N8        29.94F
6HR MIN TEMP:  49; 6HR MAX TEMP:  51; 6HR PCP:  0.05;

TEMPLE         CLOUDY    49  48  97 N7        29.94F
6HR MIN TEMP:  49; 6HR MAX TEMP:  50; 6HR PCP: TRACE;

KILLEEN        CLOUDY    48  48  99 NE8       29.93S FOG
6HR MIN TEMP:  48; 6HR MAX TEMP:  49; 6HR PCP:  0.01;

KILLEEN-SKYLRK CLOUDY    49  48  97 NE9       29.95R
6HR MIN TEMP:  48; 6HR MAX TEMP:  49; 6HR PCP:  0.01;

FORT HOOD      LGT RAIN  48  48 100 N12       29.92R
6HR MIN TEMP:  47; 6HR MAX TEMP:  48; 6HR PCP: TRACE;

GATESVILLE     CLOUDY    48  48 100 N7        29.98R
HAMILTON       CLOUDY    48  48 100 N6        29.97S
6HR MIN TEMP:  48; 6HR MAX TEMP:  49;

LAMPASAS       CLOUDY    50  50  97 NE3       29.93F FOG
6HR MIN TEMP:  50; 6HR MAX TEMP:  50;

$$

TXZ095>097-106>112-122>126-135>138-148>153-164>167-040700-
EAST TEXAS

CITY           SKY/WX    TMP DP  RH WIND       PRES   REMARKS
PARIS          CLOUDY    45  43  93 E8        30.00F
6HR MIN TEMP:  45; 6HR MAX TEMP:  46;

SULPHUR SPRNGS CLOUDY    47  47  99 NE6       29.99F FOG
6HR MIN TEMP:  47; 6HR MAX TEMP:  48;

MOUNT PLEASANT CLOUDY    47  47  98 NE7       30.00S
6HR MIN TEMP:  47; 6HR MAX TEMP:  48; 6HR PCP:  0.01;

GILMER         CLOUDY    46  45  97 NE6       29.97S
6HR MIN TEMP:  46; 6HR MAX TEMP:  47; 6HR PCP:  0.03;

MINEOLA        CLOUDY    46  46 100 NE3       29.94F
TYLER          CLOUDY    48  47  96 NE10      29.92F
6HR MIN TEMP:  48; 6HR MAX TEMP:  49; 6HR PCP:  0.05;

LONGVIEW       CLOUDY    48  47  96 NE7       29.94F
6HR MIN TEMP:  47; 6HR MAX TEMP:  49; 6HR PCP:  0.03;

MARSHALL       CLOUDY    45  43  93 N7        30.00S
6HR MIN TEMP:  45; 6HR MAX TEMP:  46; 6HR PCP:  0.05;

ATHENS         CLOUDY    46  46 100 NE8       29.92F
PALESTINE      CLOUDY    49  48  98 NE6       29.95R
JACKSONVILLE   CLOUDY    47  47 100 NE6       29.95R FOG
HENDERSON      CLOUDY    47  47 100 NE8       29.95F FOG
6HR MIN TEMP:  46; 6HR MAX TEMP:  47; 6HR PCP:  0.01;

CENTER         CLOUDY    49  48  96 NW8       29.95R
6HR MIN TEMP:  49; 6HR MAX TEMP:  49; 6HR PCP:  0.02;

NACOGDOCHES    CLOUDY    48  45  87 N9        29.92S
6HR MIN TEMP:  46; 6HR MAX TEMP:  48;

LUFKIN         CLOUDY    48  47  96 NW8       29.93R
6HR MIN TEMP:  48; 6HR MAX TEMP:  49; 6HR PCP:  0.03;

$$

SUPPLEMENTAL OBSERVATIONS (CENTRAL)

CITY           SKY/WX    TMP DP  RH WIND       PRES   REMARKS
CADDO GRASSLND   N/A     46  43  87 E5          N/A
C1F1C2F2C3F3C4F4C5F5C6F6C7F7C8F8C9!



USA.gov is the U.S. government's official web portal to all federal, state and local government web resources and services.